Tracking 20715 objects as of 27-May-2020
HD Live streaming from Space Station
objects crossing your sky now

FENGYUN 1C DEB

Track FENGYUN 1C DEB now!
10-day predictions


NORAD ID: 32429
Int'l Code: 1999-025DAR
Perigee: 808.5 km
Apogee: 899.0 km
Inclination: 99.1 °
Period: 101.9 minutes
Semi major axis: 7224 km
RCS: 0.0038 m2 (small)
Launch date: May 10, 1999
Source: People's Republic of China (PRC)
Launch site: Taiyaun Space Center, China (TSC)

Note: This is SATELLITE DEBRIS
aabbcc
Your satellite tracking list
Your tracking list is empty




NASA's NSSDC Master Catalog

Two Line Element Set (TLE):
1 32429U 99025DAR 20137.45897506 +.00000839 +00000-0 +45994-3 0  9996
2 32429 099.0904 225.5506 0062607 328.1725 031.5670 14.13729718664738
Source of the keplerian elements: AFSPC